Powrót do katalogu

BREEZE-M DEB

AktywnyUNKNOWN
NORAD 38922·DEBRIS·🇷🇺 Russia

Wystrzelony Aug 6, 2012 z Baikonur Cosmodrome

Loading…

Następne Przeloty (najbliższe 24 godziny)

TLE

ŚwieżeSource: Space-Track

Epoka: Sep 14, 2026, 13:50 UTC

1 38922U 12044BF  26257.57676190  .00023891  50468-5  37037-3 0  9992
2 38922  50.0181  31.7631 1380191 317.4786  32.6828 12.86071046575855

Śledź BREEZE-M DEB w czasie rzeczywistym z AllMySat

Download on the App Store